sat.trackr.live / text

‹ back to catalog

STARLINK-4031

NORAD 52679 · 2022-053Z

PAYLOAD ACTIVE UNKNOWN

§ Identity

Operator
Country
US
Launch date
2022-05-18
Launch site
AFETR
Launch vehicle
Mass (kg)
RCS (m²)

Purposes: comms

External: N2YO · Heavens-Above · Gunter

§ Orbital elements

Epoch: 2026-09-20T04:00:03.000096Z

Period
94.18 min
Inclination
53.1590°
Eccentricity
0.0001046
Mean motion
15.28924826 rev/d
Perigee alt
478.3 km
Apogee alt
479.7 km
Semi-major
6,857.2 km
B*
2.8031e-3
RAAN
348.7482°
Arg perigee
70.9625°
Mean anomaly
94.5898°
Rev number
584

§ Raw data

STARLINK-40311 52679U 22053Z   26263.16670139  .00080334  00000+0  28031-2 0  99962 52679  53.1590 348.7482 0001046  70.9625  94.5898 15.28924826  5847

JSON: /api/v1/satellites/52679 · /tle

For live sub-satellite position, see the globe view (requires WebGL).

§ Visibility from observer

Set your observer location to see the next 7 days of passes ≥ 10°. The values pass through the URL so the page stays shareable.

No JS? Fill the form by hand. The geolocation button needs JavaScript.